GFSMW_925_temp_111.txt.gz
Temp
19 17 16 16 16 16 16 17 17 18 18 18 18 18 19 19 19 19 19 19 19 19 19 19 20 20 20 20 20 19 20 19 19 19 19 19 20 20 20 19 19 19 18
18 17 16 16 16 16 16 15 17 18 17 17 17 17 18 18 19 19 19 19 19 19 19 19 19 19 19 19 19 19 19 19 18 18 18 19 19 20 19 19 19 18 17
17 17 16 16 15 15 15 16 16 17 17 17 17 17 17 17 17 17 18 18 18 18 18 18 18 18 18 18 18 18 18 18 17 18 18 17 18 20 19 18 18 17 17
18 17 17 16 15 16 17 16 16 16 17 17 17 17 17 17 17 17 17 18 18 18 18 18 18 18 17 16 16 17 17 17 17 16 17 17 17 17 19 18 17 17 17
17 18 18 17 16 15 16 16 16 16 17 18 18 17 18 19 17 18 17 17 16 16 17 17 18 19 17 16 16 16 16 16 16 16 15 15 15 16 16 17 18 16 16
17 17 18 18 17 16 16 15 16 16 16 17 17 17 17 17 15 15 16 17 16 16 17 17 17 17 18 18 16 16 15 15 16 17 15 15 16 17 17 17 17 17 16
19 18 17 17 16 16 17 16 16 16 16 16 17 16 16 16 16 16 18 18 16 15 17 17 17 17 19 17 15 15 15 15 15 16 15 15 15 15 15 15 15 15 16
21 20 19 18 17 16 16 18 18 17 17 16 17 17 16 17 18 17 17 18 15 14 16 19 16 18 17 15 15 15 15 15 15 14 14 14 14 14 14 14 14 14 15
21 21 21 20 19 18 17 17 18 19 18 17 17 17 18 16 15 15 16 15 15 16 17 16 14 15 15 15 15 15 15 14 14 13 13 13 13 13 13 13 13 13 13
20 21 19 19 20 20 19 19 19 19 19 18 17 17 18 17 16 15 15 15 15 15 15 14 15 15 14 14 14 14 13 13 13 13 13 12 12 12 11 11 12 12 11
18 18 17 17 16 17 18 19 19 19 19 18 16 15 15 16 16 16 15 15 14 14 14 14 14 14 14 13 13 12 13 12 12 12 12 12 11 11 11 11 11 11 11
17 17 16 16 16 16 16 17 17 18 18 17 16 15 14 15 15 14 14 14 13 13 13 13 13 13 12 12 11 12 12 12 11 11 11 11 10 10 10 10 10 10 9
18 17 17 17 16 16 16 16 16 16 16 16 16 15 14 14 14 13 12 12 12 12 11 11 11 11 11 11 11 12 11 11 10 10 10 10 9 9 9 9 8 8 8
18 18 17 17 16 15 15 15 15 14 14 14 14 14 13 13 13 12 11 11 11 11 10 10 10 10 10 10 10 10 10 9 9 9 8 8 8 8 8 7 7 7 7
17 17 17 17 17 16 15 14 14 13 13 13 13 13 12 12 11 10 10 10 10 10 10 10 10 10 9 9 10 10 9 8 8 7 7 7 6 6 6 6 6 6 6
17 17 17 17 16 16 14 14 13 12 13 13 12 11 11 10 10 10 9 9 9 9 9 9 8 8 8 9 9 9 8 7 7 6 6 5 5 5 5 5 5 5 4
16 16 16 15 15 14 14 14 13 12 13 12 11 11 10 10 9 9 9 8 8 8 8 8 8 7 8 8 8 7 7 7 6 5 5 4 3 4 3 4 4 3 3
14 15 14 14 13 13 13 13 12 12 12 12 11 10 10 9 9 8 8 8 7 7 7 7 7 7 7 7 7 7 6 6 5 4 4 4 3 3 3 3 2 2 2
13 13 12 12 12 12 11 12 13 12 12 11 11 10 10 9 8 8 8 7 7 7 7 7 7 6 6 5 6 5 5 4 4 4 3 3 2 2 3 2 2 2 2
11 11 11 11 12 11 10 10 11 12 12 12 11 11 10 9 8 8 7 6 7 6 6 6 6 5 5 4 5 4 4 4 4 3 2 3 2 2 2 1 1 1 2
9 8 9 10 10 8 8 10 11 11 11 11 10 10 9 9 8 7 6 6 6 5 4 4 4 5 5 4 3 4 4 4 4 3 2 2 2 2 1 1 1 1 1
8 8 8 8 7 7 7 8 9 8 8 8 8 8 8 8 7 6 5 4 4 4 4 4 4 4 4 4 3 2 3 3 3 2 2 2 2 1 1 0 1 1 1
9 8 8 7 6 6 6 6 7 7 7 8 8 8 7 6 5 5 4 4 4 5 5 5 5 4 4 3 3 3 2 2 2 2 2 1 1 1 1 1 0 0 -0
9 8 8 8 8 6 6 5 5 6 7 8 8 8 7 6 6 4 3 4 4 5 5 5 5 4 3 3 3 3 2 2 1 1 1 1 1 1 0 0 -0 -0 -0
8 7 7 6 6 6 5 5 4 5 7 7 7 7 7 6 5 4 3 3 4 5 6 5 5 4 3 3 3 3 2 2 1 1 1 0 -0 -0 0 -0 -0 0 -0
6 6 5 5 5 5 5 4 4 4 6 6 6 6 4 3 3 3 2 3 3 4 5 5 4 4 4 4 3 2 2 2 1 1 0 -0 -0 0 0 0 0 -0 -1

GFSMW_925_temp_114.txt.gz
Temp
17 16 15 16 16 15 14 16 16 17 20 19 19 19 18 19 18 18 18 18 18 19 19 19 20 19 19 19 19 19 19 19 19 19 19 19 20 20 20 20 19 19 18
16 16 16 15 15 15 15 16 16 17 20 19 18 18 18 18 18 18 19 19 19 19 19 19 19 20 20 20 19 19 19 19 19 18 18 16 18 20 20 19 19 18 18
17 16 15 15 15 15 15 15 15 17 18 18 18 18 18 18 19 19 19 19 19 19 19 19 19 19 19 19 19 19 19 19 18 18 18 15 15 18 19 19 18 18 17
16 16 16 15 15 15 15 14 15 15 16 18 17 18 17 17 18 18 18 18 18 19 19 19 19 19 19 19 19 17 17 18 17 18 17 16 16 15 16 18 18 17 17
16 15 16 16 16 15 16 15 15 15 15 17 19 19 17 17 18 17 17 17 17 17 18 18 18 18 19 18 19 17 17 17 17 16 16 16 16 16 15 14 16 16 17
15 16 16 15 15 16 15 14 15 15 15 15 16 18 19 18 18 17 17 18 18 18 18 18 18 18 18 17 16 16 17 17 16 16 15 16 16 15 15 14 15 15 16
15 15 16 16 15 15 15 15 15 14 15 15 15 17 17 17 17 17 17 16 17 18 18 18 18 17 17 17 16 16 15 16 15 15 15 15 16 15 15 15 14 14 15
15 15 15 14 15 15 15 15 15 15 16 17 16 16 16 17 16 16 17 17 17 18 17 17 18 19 18 16 16 17 17 16 15 15 14 15 14 15 15 14 14 12 13
17 16 16 15 15 15 15 16 16 16 15 15 16 16 16 15 16 16 16 16 16 16 14 16 16 15 17 16 16 16 17 15 15 15 14 14 14 14 14 13 13 13 11
17 16 16 16 17 17 16 16 17 17 16 16 17 17 15 15 16 16 17 16 19 18 16 18 16 15 15 14 15 15 15 14 14 14 14 13 13 13 13 12 12 12 11
15 14 14 16 16 17 18 17 17 17 17 18 17 16 15 15 16 17 17 18 17 16 15 15 15 15 14 14 14 14 14 13 13 13 13 12 13 12 12 11 11 11 11
14 14 14 15 15 16 17 18 18 19 19 19 18 16 16 16 16 15 15 15 15 14 15 14 14 13 14 13 13 13 13 12 12 12 12 12 11 11 11 11 10 10 10
14 14 13 13 14 15 16 16 17 18 18 17 17 15 15 15 15 15 15 14 14 14 13 13 13 13 12 12 12 12 12 12 12 12 12 11 11 10 10 10 9 9 9
14 14 13 13 14 14 15 15 15 15 15 16 15 14 14 14 13 13 13 13 13 13 12 11 11 11 11 11 11 11 11 11 11 11 10 10 9 9 9 8 8 8 7
14 13 13 13 13 14 14 14 13 13 13 13 15 14 13 13 13 12 11 11 11 11 11 11 11 11 10 10 10 10 11 11 10 10 9 9 9 8 8 7 7 6 6
14 13 13 12 12 13 13 13 13 13 13 13 12 14 12 12 11 11 10 11 11 10 10 10 10 10 10 10 10 10 10 9 9 9 8 7 7 6 6 6 6 6 6
12 12 12 11 12 12 13 12 12 12 13 12 12 11 11 11 10 10 10 10 9 9 9 9 9 9 9 8 8 8 8 8 7 7 6 5 5 5 5 5 5 4 4
11 11 10 11 12 12 11 12 12 12 12 12 11 11 10 10 10 9 9 9 9 9 9 8 8 9 8 7 7 8 8 7 7 6 6 5 4 4 3 3 3 3 3
9 10 10 11 11 10 10 10 11 12 12 11 11 11 10 10 9 9 9 8 8 8 8 8 7 8 7 7 7 7 7 6 5 5 4 4 4 3 3 3 2 2 2
9 8 9 10 10 9 8 9 10 11 11 12 11 11 10 10 9 9 8 8 8 7 7 7 7 7 6 5 6 6 6 5 4 4 4 3 3 3 2 2 2 2 2
8 8 8 8 8 8 8 8 8 9 9 9 10 11 10 10 9 8 8 8 7 6 6 6 6 6 6 6 5 5 5 5 4 4 3 3 3 2 2 2 1 1 1
9 8 8 7 7 6 6 6 7 7 7 8 8 9 9 9 9 8 7 7 6 5 5 5 5 5 5 6 5 5 4 4 4 3 3 3 2 2 1 1 1 1 1
9 8 8 8 7 6 6 6 5 6 6 7 7 8 8 8 7 7 6 5 5 4 4 4 4 5 5 5 4 3 3 3 3 3 2 2 2 2 1 1 1 1 1
8 8 7 7 6 6 6 5 5 5 6 7 8 8 8 7 6 5 5 5 4 4 4 4 4 4 4 4 3 3 3 2 2 2 2 2 2 2 1 1 1 0 0
7 7 7 6 6 5 5 4 4 5 6 7 7 7 7 7 6 5 4 4 4 5 5 5 5 4 4 4 4 4 3 2 2 2 1 1 1 1 1 0 0 0 -0
6 6 6 5 5 5 4 4 4 4 5 5 6 6 6 6 5 4 3 3 4 4 5 6 6 5 5 5 4 3 3 3 2 1 1 1 0 0 0 0 0 0 -0

GFSMW_925_temp_117.txt.gz
Temp
15 14 14 14 13 14 14 15 16 16 17 17 19 19 17 19 19 19 19 19 19 19 19 19 19 19 19 19 19 19 19 19 19 19 19 20 19 19 19 19 19 18 18
15 15 14 14 14 15 15 15 15 16 17 16 19 18 18 18 19 19 19 19 19 19 19 19 19 19 19 19 19 19 19 19 19 19 17 16 18 19 19 19 19 18 18
15 15 15 14 14 15 15 15 16 15 15 16 18 18 17 18 18 18 18 18 18 18 18 19 19 19 19 19 19 19 19 19 18 18 18 15 14 16 17 18 18 18 17
16 15 15 15 15 15 15 15 16 15 17 16 16 17 18 17 17 18 18 18 18 18 19 19 19 19 19 19 19 19 17 18 17 15 16 16 16 14 16 17 17 17 17
16 16 15 15 15 14 15 15 15 15 15 16 16 16 18 17 17 18 18 18 18 18 19 19 19 19 19 19 19 19 18 17 16 16 16 16 16 16 15 14 16 16 16
15 15 15 15 14 14 14 14 14 14 15 15 16 17 19 18 19 17 17 17 18 18 18 18 18 18 18 18 18 18 17 17 16 17 17 16 15 14 14 13 14 14 16
15 14 15 14 14 14 14 14 14 14 14 15 16 18 19 20 19 19 18 18 17 17 18 18 18 18 18 18 18 18 18 17 16 16 17 16 15 16 16 15 14 13 15
13 14 14 15 15 14 14 14 14 14 14 14 15 16 18 19 19 19 20 20 17 18 18 18 18 18 17 18 17 17 16 16 16 15 17 16 14 15 16 15 14 12 12
14 14 13 13 15 15 14 14 15 14 14 15 14 15 15 15 17 17 18 17 17 17 16 17 16 17 17 16 15 14 16 17 16 15 14 15 14 14 14 14 14 13 10
14 14 14 14 14 15 15 15 15 15 14 15 15 15 15 16 15 16 16 16 16 16 15 16 15 15 14 14 15 15 16 15 15 15 14 14 14 14 13 13 13 13 12
13 13 12 14 15 16 16 15 14 14 14 15 14 15 14 15 16 16 17 16 15 15 15 15 15 14 14 14 14 15 14 14 15 14 14 13 13 13 13 12 12 12 11
12 12 12 13 14 15 15 15 15 15 16 16 15 15 14 14 14 15 15 15 15 16 16 14 16 16 15 15 15 13 13 14 14 13 12 12 12 12 12 11 11 11 10
12 12 12 11 12 13 14 15 15 16 17 16 15 15 14 14 14 14 14 15 14 15 16 17 15 14 14 14 13 13 13 12 12 12 12 12 12 12 11 11 10 10 9
12 11 11 11 11 12 12 13 14 14 14 16 18 15 14 14 14 13 14 14 14 14 14 14 13 13 13 13 12 12 12 11 12 12 12 11 11 11 10 10 9 9 8
11 11 10 9 10 11 12 13 13 13 14 13 14 14 15 14 13 13 13 13 13 13 13 13 12 12 11 11 11 11 11 11 11 11 10 10 10 9 9 9 8 8 7
10 10 10 9 9 10 11 12 12 12 13 13 12 12 12 15 12 11 11 11 11 11 11 10 11 11 11 11 11 11 11 10 10 9 9 9 8 8 7 7 7 6 6
9 9 8 8 10 10 10 11 12 12 12 12 12 12 12 12 12 12 11 11 10 10 10 10 10 10 10 10 10 10 10 10 9 9 9 7 7 7 7 6 6 5 5
8 8 8 9 9 9 10 11 11 12 11 11 11 11 11 11 11 11 10 10 10 10 10 9 9 9 9 9 10 10 9 9 8 8 8 7 6 6 5 5 4 4 4
7 7 8 8 8 8 8 9 10 11 11 11 11 11 11 11 10 10 9 9 9 9 9 9 9 9 8 8 8 8 8 7 7 6 6 6 5 5 4 4 4 3 3
8 7 8 8 7 7 7 8 8 9 8 9 10 10 11 10 10 9 9 9 8 8 8 8 8 8 8 6 7 7 7 6 6 5 5 5 4 4 4 3 3 2 3
8 8 7 7 7 7 7 6 6 6 7 8 9 9 10 10 10 9 8 8 8 7 7 7 7 7 7 6 6 6 6 6 5 5 4 4 4 3 3 3 2 2 2
8 8 7 7 7 6 6 5 5 5 6 7 7 8 8 9 9 8 8 7 7 6 6 6 6 6 6 6 6 5 5 5 5 4 4 4 3 3 2 2 2 1 1
8 8 7 6 6 6 6 5 5 5 6 6 7 7 8 8 8 8 7 6 5 5 5 4 5 5 5 5 5 5 4 4 4 4 4 3 3 2 2 1 1 1 1
7 7 7 6 6 5 5 5 5 5 6 6 7 7 7 7 7 7 6 5 5 4 4 3 4 4 4 4 4 4 3 3 3 3 2 2 2 2 2 1 1 1 1
7 7 6 6 5 5 5 5 5 5 5 6 6 7 7 7 6 6 6 5 5 4 4 4 4 4 4 5 5 4 3 3 2 2 1 1 1 1 1 1 1 1 0
6 6 6 5 5 5 5 4 4 4 4 4 4 5 5 5 5 5 5 4 4 4 4 4 5 5 5 5 5 4 4 3 2 2 1 1 1 1 1 0 1 0 0

GFSMW_925_temp_120.txt.gz
Temp
15 14 14 13 14 14 14 14 15 15 16 15 16 15 16 16 17 17 18 18 18 18 18 18 18 18 19 19 19 19 19 19 19 19 19 19 19 19 19 19 19 18 18
15 14 13 13 14 14 15 14 15 15 15 15 15 16 15 16 18 18 18 18 19 18 19 18 19 19 19 19 19 19 19 19 19 18 17 15 17 18 18 18 18 18 17
15 14 14 14 13 14 14 14 14 15 15 16 16 16 16 15 16 18 18 19 19 19 19 19 19 19 19 19 19 19 19 18 17 18 17 14 14 15 16 17 17 17 17
15 15 14 14 14 14 15 15 14 16 15 16 16 16 16 16 16 17 18 19 19 19 19 19 19 19 19 19 19 19 19 19 17 16 17 18 17 14 15 16 16 17 17
15 15 15 15 15 15 15 15 15 15 16 16 16 16 16 17 16 16 17 18 18 19 19 18 18 19 19 19 19 18 18 18 18 17 15 15 15 16 15 15 15 16 16
15 15 15 14 14 14 14 14 15 15 16 16 16 16 16 17 17 17 16 17 18 18 18 18 18 18 18 18 19 19 18 18 18 18 16 16 15 14 14 13 14 15 15
15 14 15 14 14 13 13 14 14 14 15 15 15 16 16 17 16 18 17 16 16 17 18 18 18 18 18 18 19 18 17 17 18 17 16 16 18 15 15 15 14 13 14
14 14 14 14 13 13 13 14 13 14 14 14 15 14 15 15 16 16 18 17 18 17 18 18 18 18 19 19 18 18 17 17 16 16 15 15 15 15 15 15 14 12 12
11 12 13 13 14 13 14 14 14 13 14 14 14 14 14 14 15 16 16 17 19 20 20 19 19 18 18 17 17 16 16 15 15 15 15 15 16 15 14 14 15 14 11
13 12 11 12 13 14 13 14 14 13 14 14 14 15 14 14 15 16 16 17 18 18 16 16 16 17 17 16 16 15 15 15 14 14 14 14 15 14 13 14 14 14 14
12 12 12 12 13 14 14 14 14 13 13 14 14 14 14 15 15 14 14 15 15 16 16 16 15 16 16 15 15 14 14 14 14 14 14 15 14 13 13 13 13 13 13
11 11 11 11 11 12 13 14 13 14 13 14 14 13 14 14 14 14 14 14 14 15 15 15 15 16 15 14 14 13 13 13 13 13 14 14 13 12 12 12 12 12 12
10 10 11 11 10 11 12 12 13 13 13 13 14 13 13 13 14 14 14 14 14 14 14 14 15 16 15 14 14 13 14 14 14 13 13 13 12 12 12 12 11 11 10
9 9 9 9 10 10 11 12 13 13 13 13 13 14 14 14 13 13 13 13 14 14 14 14 14 15 14 14 14 14 14 13 13 12 13 12 12 12 12 11 10 10 9
9 8 8 7 8 9 10 11 12 12 12 13 12 12 13 14 15 14 13 13 13 13 13 12 13 13 13 13 13 13 12 12 11 11 11 11 11 11 11 11 10 9 8
8 8 7 7 7 8 9 10 11 11 12 12 12 12 12 12 12 13 13 12 11 11 11 11 12 11 12 12 12 12 11 11 10 10 10 10 10 9 9 9 8 8 8
7 7 6 6 7 7 8 9 10 11 12 11 11 11 11 11 11 11 12 10 10 11 11 11 11 12 11 11 11 11 11 10 10 10 9 8 8 8 8 7 7 6 6
6 6 6 7 7 7 8 9 10 11 10 10 10 11 11 11 11 11 12 11 11 10 10 10 10 10 10 10 10 10 10 10 9 9 9 8 8 7 7 6 6 5 5
6 6 7 7 7 7 7 8 9 9 9 9 9 10 10 10 10 10 10 10 9 9 9 9 9 9 9 9 9 9 9 8 8 8 7 8 7 6 5 5 5 4 4
7 7 7 6 7 7 7 8 7 7 7 7 8 9 10 10 10 10 10 9 9 9 9 8 8 8 8 8 8 8 8 7 7 7 6 6 6 5 5 5 4 3 3
7 7 7 6 6 6 6 6 6 6 6 7 7 8 9 9 9 9 9 9 8 8 8 8 8 7 8 7 7 7 8 8 7 6 5 5 5 4 4 4 4 3 3
7 7 7 6 6 5 6 5 5 5 6 6 7 8 8 8 8 8 8 8 7 7 7 6 6 7 7 6 6 6 6 6 7 6 5 5 4 3 3 3 3 2 2
7 7 6 6 6 5 5 5 4 5 5 6 6 7 7 7 7 7 7 6 6 5 5 5 5 5 5 5 5 5 5 5 5 6 5 4 3 3 2 2 2 1 1
6 7 7 6 5 5 5 4 4 5 5 5 6 6 7 7 7 7 7 6 5 4 4 4 4 5 5 5 4 4 4 4 4 4 4 3 3 2 2 1 1 1 1
6 6 6 6 5 5 5 4 4 5 5 5 5 5 6 6 5 6 6 5 5 5 4 4 4 4 4 5 5 4 3 4 4 3 2 2 1 1 1 1 1 1 0
5 5 5 5 5 5 4 4 4 4 4 4 4 4 4 4 4 4 4 4 4 4 4 4 3 4 5 5 5 5 4 4 3 2 1 1 1 1 1 1 1 1 0

GFSMW_925_temp_123.txt.gz
Temp
14 15 14 15 13 14 16 16 17 18 17 17 16 16 16 16 16 16 17 17 16 16 17 17 17 17 17 18 18 18 18 18 18 18 18 18 18 18 18 19 19 18 18
14 15 15 13 13 14 16 17 17 16 16 16 16 17 16 16 16 16 16 16 16 16 16 17 17 17 17 17 18 18 18 18 18 18 17 15 17 18 18 18 18 17 17
14 14 14 13 13 13 15 16 16 15 15 16 16 16 15 15 15 15 16 15 16 16 17 17 18 18 18 18 18 18 19 18 17 18 17 14 15 14 16 16 16 17 17
14 14 14 13 13 13 14 15 15 15 15 15 15 15 15 15 15 15 15 16 16 17 17 18 18 18 18 18 19 19 19 19 17 17 18 18 17 14 14 15 16 16 16
15 14 14 14 14 14 14 15 16 16 15 15 15 15 15 15 14 15 15 15 16 18 18 18 18 18 18 19 19 18 18 18 18 17 16 16 16 16 14 14 14 15 15
15 15 14 14 14 14 14 15 14 14 14 15 15 15 15 15 14 14 15 15 15 16 18 18 18 19 19 19 18 18 18 18 18 18 17 16 15 15 14 13 14 15 15
14 14 14 14 14 13 14 14 14 14 14 15 15 15 15 15 15 15 15 15 14 15 18 18 18 18 18 18 18 18 18 17 16 16 16 17 17 15 15 15 13 13 13
11 12 12 13 13 13 13 13 13 14 14 15 15 15 16 15 15 15 15 16 15 16 17 18 18 18 18 18 17 16 17 17 18 16 17 17 17 17 15 14 14 12 12
10 10 10 10 13 14 14 14 14 14 14 14 15 15 15 16 16 15 15 16 16 16 17 18 18 17 18 17 17 17 18 18 17 16 16 16 16 15 15 14 15 14 12
10 10 10 10 11 13 13 14 13 13 13 14 14 14 14 14 14 15 15 15 15 17 18 17 17 18 16 17 16 17 17 16 16 15 15 15 15 15 14 14 14 13 13
10 10 10 11 11 12 13 13 13 13 13 13 13 13 13 14 14 14 14 14 14 16 17 17 18 18 15 15 15 16 16 16 15 15 14 14 14 14 14 14 13 12 12
9 9 9 10 10 10 11 11 13 13 13 13 14 14 13 13 13 13 13 13 14 14 14 15 15 15 15 14 14 15 15 14 14 14 14 14 13 12 13 12 12 12 12
9 8 8 8 9 9 9 10 11 12 13 13 14 13 14 13 13 13 13 14 14 14 14 14 14 15 15 14 15 15 14 14 13 13 13 14 13 13 12 12 11 11 11
8 8 7 7 7 8 8 9 11 11 12 13 13 14 13 13 13 13 13 13 13 13 14 14 14 14 14 14 14 14 14 14 13 13 13 13 13 12 12 11 11 11 10
7 7 6 6 6 6 8 9 10 11 12 12 12 13 13 14 14 13 13 13 13 14 13 13 13 13 14 14 13 13 13 13 13 12 11 11 12 11 11 11 11 10 10
6 6 6 5 5 5 6 8 9 10 11 11 11 12 12 12 12 12 12 12 13 13 12 12 12 12 13 12 13 13 12 11 11 11 11 11 10 10 10 10 10 10 10
6 5 5 5 5 5 6 7 9 10 10 10 10 11 11 11 11 11 11 11 11 11 11 11 11 11 11 12 12 12 11 11 10 10 10 9 9 9 9 8 8 8 7
6 5 5 5 6 6 7 8 8 9 9 9 9 9 9 10 10 10 9 9 9 10 11 11 11 11 11 11 10 10 10 10 10 10 10 9 8 8 9 8 8 6 6
6 6 6 6 6 6 6 7 7 7 7 7 7 8 8 9 9 9 9 9 9 9 10 9 10 10 10 10 9 9 9 9 9 8 8 8 8 8 8 7 6 5 5
7 6 6 6 6 6 6 7 6 6 5 6 7 7 8 8 9 9 9 9 9 9 8 8 9 9 9 9 9 9 9 8 7 7 7 7 7 6 5 7 5 4 4
7 7 6 6 5 6 6 6 5 5 6 7 7 8 8 8 8 8 8 8 8 8 8 8 7 7 7 8 8 8 8 8 7 6 6 6 6 5 5 6 5 4 4
6 6 6 6 6 6 6 5 5 6 7 7 7 7 7 7 7 7 7 7 6 6 6 6 6 7 7 7 6 6 6 7 7 7 6 6 5 5 4 4 4 3 3
6 6 6 5 5 5 5 5 5 5 6 6 6 6 7 7 7 7 7 7 6 6 5 5 5 6 6 6 5 5 5 6 6 6 6 5 5 4 3 3 3 2 2
5 6 6 5 5 5 4 5 5 5 5 5 6 6 7 7 7 6 6 6 6 5 5 4 4 5 5 5 5 5 5 5 5 5 5 4 4 3 3 2 2 2 2
5 5 5 5 5 5 4 5 4 5 5 4 5 5 5 6 6 5 5 5 5 4 4 4 4 4 4 5 6 5 4 4 4 4 3 3 2 2 2 1 1 1 1
4 5 5 5 5 4 4 4 3 4 4 4 4 4 4 4 4 4 4 4 4 4 4 4 3 3 3 4 4 4 4 4 4 3 2 1 1 1 1 1 1 1 1

GFSMW_925_temp_126.txt.gz
Temp
13 14 15 14 13 14 13 15 15 18 17 17 17 17 17 16 16 16 16 16 16 17 17 16 17 17 17 17 17 17 17 17 18 17 17 17 18 18 18 19 18 18 18
13 13 13 13 13 13 14 15 15 17 17 17 17 17 17 16 16 16 16 16 16 17 16 16 17 17 16 17 17 17 16 17 18 17 17 15 16 16 17 18 18 18 17
13 14 12 13 13 13 13 14 15 16 18 17 17 16 16 16 16 15 15 15 16 16 16 16 16 17 17 17 17 17 17 17 17 18 18 13 14 14 15 16 17 17 17
14 13 13 14 13 13 13 14 14 15 16 19 16 16 16 16 16 15 15 15 15 15 16 16 17 17 17 17 17 17 17 18 17 17 18 17 17 14 14 15 16 16 17
14 14 14 14 13 13 14 14 14 14 15 15 16 15 15 16 15 15 15 15 15 15 15 16 17 17 17 17 17 17 17 18 18 17 16 16 17 17 14 14 14 15 16
13 13 13 13 13 13 14 14 14 14 14 16 15 15 15 15 14 14 14 14 14 15 15 16 17 17 17 17 17 18 18 18 18 18 17 18 16 15 15 13 14 13 14
11 11 11 14 13 13 13 13 14 14 14 15 15 15 15 15 14 14 14 14 14 15 15 16 16 17 17 18 18 18 18 18 17 18 18 17 16 17 16 15 14 13 12
10 10 10 10 13 13 13 13 14 14 14 14 15 15 15 15 14 14 14 14 15 15 16 16 16 17 18 18 18 18 18 18 17 17 17 17 16 17 16 15 14 12 11
9 10 10 10 10 12 13 13 13 14 14 14 14 14 14 15 14 14 14 14 14 15 15 16 16 16 17 18 18 17 17 17 16 16 16 17 17 16 15 15 15 15 12
8 8 9 10 10 11 11 13 13 13 13 14 14 14 14 14 14 14 14 14 14 15 15 15 15 14 17 17 18 15 16 16 17 15 15 16 16 16 15 15 14 14 14
8 8 8 9 10 10 10 11 13 13 13 13 13 14 13 14 13 13 14 14 14 14 14 15 15 15 17 18 19 17 17 16 17 15 16 16 16 14 14 14 13 13 13
8 7 8 8 8 8 8 10 11 12 13 13 13 13 13 13 13 13 13 13 13 13 13 13 13 14 14 16 18 17 16 15 15 15 15 15 14 14 13 13 13 13 13
8 7 7 7 7 7 7 8 9 11 13 13 13 13 13 13 13 13 13 13 13 13 13 13 13 13 14 14 15 15 14 14 15 15 14 14 14 13 13 12 12 11 11
7 7 6 6 6 6 6 7 9 10 12 13 13 13 13 13 13 13 13 13 13 13 13 14 14 14 13 13 13 13 14 15 14 13 13 13 13 13 13 13 12 11 10
6 6 5 5 5 5 6 7 8 10 10 11 12 12 12 12 12 12 12 12 13 13 13 13 13 13 13 13 13 14 13 13 13 13 13 13 13 13 12 12 11 10 9
5 5 5 5 4 4 5 6 7 8 10 9 10 11 11 11 11 11 11 12 12 12 12 12 13 13 12 12 12 12 13 13 13 12 12 11 12 11 10 11 11 10 10
5 5 4 4 4 4 5 6 7 8 8 8 9 9 10 10 10 11 11 11 11 10 10 11 11 12 12 12 12 11 11 11 12 12 11 10 9 9 9 9 9 9 9
5 4 4 5 5 5 6 7 8 8 8 8 8 9 9 9 9 10 10 10 10 10 10 10 10 11 11 11 11 10 10 10 9 9 9 9 9 8 9 9 8 7 7
5 5 5 5 5 5 6 6 7 6 6 6 7 7 8 9 9 9 9 9 8 8 8 9 9 10 10 10 10 9 9 10 9 8 8 7 8 8 8 8 7 6 6
6 6 6 5 5 5 5 6 5 6 5 5 6 7 7 8 8 7 8 8 8 8 8 8 8 8 9 9 9 9 8 8 8 8 8 8 7 7 7 7 6 5 5
6 6 6 5 5 6 6 6 6 5 5 6 6 7 7 7 7 7 7 7 7 7 6 7 7 7 7 8 8 8 8 8 8 8 7 7 7 7 7 6 6 5 5
6 6 6 5 5 5 6 5 5 5 6 6 6 6 6 6 6 6 6 6 6 6 6 6 6 6 6 6 6 6 6 7 7 7 7 7 7 6 5 5 5 4 4
5 5 5 5 5 5 5 5 5 5 6 6 6 6 7 7 7 6 6 6 6 6 6 6 7 7 7 6 6 6 5 6 6 6 6 7 6 5 4 4 4 3 3
5 5 5 5 5 5 5 5 4 5 5 6 5 5 6 6 7 7 6 5 4 4 4 4 4 4 5 6 6 5 5 4 4 5 5 5 5 4 4 3 3 2 3
4 4 4 4 5 5 5 4 4 4 4 4 4 4 4 4 4 4 4 4 4 3 3 3 3 3 3 4 4 4 4 4 4 4 4 3 3 3 2 2 2 2 1
4 4 4 4 4 4 4 4 4 4 3 3 3 3 3 3 3 4 4 4 3 4 3 3 2 3 3 3 3 3 3 3 3 3 3 2 2 1 1 1 1 1 1

GFSMW_925_temp_129.txt.gz
Temp
14 14 13 13 13 13 14 14 14 16 15 16 16 17 17 17 17 17 17 16 16 16 16 16 15 16 16 17 17 16 16 16 17 17 16 17 17 18 18 18 18 18 18
13 14 14 13 12 13 13 13 13 14 15 16 16 17 17 17 17 17 16 18 16 16 16 16 16 17 15 15 16 16 15 16 17 16 17 18 17 16 17 17 17 18 18
12 14 13 13 12 12 13 13 13 14 15 16 17 17 17 16 16 16 16 16 16 16 16 16 16 17 16 15 16 16 16 16 16 17 18 16 18 16 16 16 17 17 17
12 14 14 13 13 13 13 13 13 14 16 16 16 17 17 17 16 16 16 15 16 16 15 16 16 16 16 16 17 17 16 16 16 16 18 17 17 18 17 15 16 16 16
11 12 13 13 13 13 13 13 14 16 14 15 16 16 16 17 17 16 16 16 15 15 15 16 16 16 16 16 16 16 16 16 16 16 15 15 16 16 17 17 15 14 15
10 11 13 14 14 13 14 15 15 14 14 14 15 16 16 17 16 16 15 15 15 15 15 15 15 15 16 16 18 17 17 16 17 17 17 17 17 16 15 16 15 16 15
9 9 11 11 12 13 13 14 14 14 14 14 15 16 17 17 16 15 15 15 15 15 15 15 15 15 16 17 17 17 17 17 16 17 17 17 18 18 16 16 14 15 14
8 8 9 9 10 12 13 13 13 13 14 14 14 15 15 15 15 15 15 15 15 15 15 15 14 14 15 16 17 17 17 17 16 16 17 17 17 17 17 16 14 13 13
8 8 8 8 8 9 11 13 13 13 13 14 14 14 15 15 14 15 15 15 15 14 15 15 15 14 14 16 16 18 16 16 17 16 17 16 17 16 16 16 16 14 16
8 7 7 7 7 8 9 11 13 13 13 14 14 14 14 15 14 14 14 14 14 14 14 15 14 14 14 15 16 14 15 16 16 16 15 16 15 15 15 15 14 14 14
8 7 8 8 7 8 8 9 11 13 13 13 14 14 14 14 14 14 14 14 14 14 14 14 14 15 14 14 15 16 16 16 15 14 14 14 16 15 15 14 14 13 13
8 8 8 8 7 7 8 8 9 11 13 13 13 13 13 13 13 13 14 14 14 14 14 14 15 15 14 14 14 15 17 14 15 14 14 16 14 14 14 14 14 13 13
8 7 7 7 7 7 7 7 8 10 12 13 13 13 13 13 13 13 13 13 13 13 13 13 14 14 14 14 14 13 14 16 17 16 15 14 14 13 13 13 13 13 12
7 7 7 6 5 6 6 7 8 9 10 11 11 12 12 12 12 12 13 13 13 13 13 13 13 13 13 13 14 13 13 14 15 15 14 14 13 13 13 13 13 12 11
7 6 6 6 5 5 5 6 7 9 10 11 10 10 11 12 12 12 12 12 12 12 13 13 13 13 13 13 13 13 13 13 13 14 14 13 13 13 13 13 13 12 10
6 6 5 5 5 4 4 5 6 8 9 8 8 9 10 11 11 11 11 11 11 12 12 12 12 12 12 12 13 13 12 12 12 12 13 13 13 13 12 12 12 12 10
6 5 5 4 4 4 5 5 6 7 8 8 8 8 9 9 9 10 10 10 10 10 11 11 11 11 11 12 13 13 12 12 11 11 11 11 12 10 10 10 10 9 8
6 5 4 4 4 5 6 6 7 7 7 7 7 7 8 8 9 9 9 9 9 9 9 9 9 9 9 9 9 11 12 12 12 11 10 10 9 9 8 8 8 8 8
5 5 5 4 5 5 6 6 6 6 6 6 6 7 7 8 8 8 8 8 8 8 8 8 8 8 9 8 9 9 9 9 9 8 9 11 10 9 8 8 7 6 6
6 5 5 5 5 5 6 6 5 6 5 5 6 6 7 7 7 7 7 7 7 7 7 7 7 7 8 8 8 8 8 8 8 8 8 7 7 7 8 8 8 6 6
6 6 5 5 5 5 6 5 5 5 5 6 6 6 6 6 6 7 7 7 7 7 7 7 7 7 7 7 7 7 7 7 7 7 7 7 6 6 7 7 7 7 6
6 6 5 5 6 5 5 5 5 4 5 5 6 6 6 6 6 7 6 6 6 6 6 6 7 7 7 7 7 7 6 6 6 6 7 7 6 6 5 6 6 5 5
5 5 5 5 5 5 5 5 5 5 5 5 5 5 5 5 5 6 6 5 5 5 4 4 4 5 6 6 7 6 6 5 5 5 6 6 6 5 4 4 5 4 3
4 5 5 4 5 5 5 5 5 5 4 4 5 5 5 5 5 4 4 4 3 3 3 3 3 3 3 4 5 4 5 5 5 5 5 5 5 4 4 4 3 3 3
4 4 4 4 5 5 5 5 5 5 5 4 3 3 3 4 4 3 3 4 4 3 3 3 3 2 2 2 3 3 3 3 4 3 4 3 3 3 3 3 3 2 2
4 3 4 3 4 4 4 4 4 4 4 3 3 3 3 3 3 3 3 3 3 3 3 2 1 1 1 2 2 2 3 3 3 3 3 2 2 2 2 2 2 2 2

GFSMW_925_temp_132.txt.gz
Temp
13 13 13 14 15 15 15 15 15 16 16 17 17 17 17 17 17 18 17 17 17 17 17 17 16 16 17 18 17 18 17 17 19 19 18 19 19 18 18 18 19 18 17
12 13 16 16 16 15 15 15 15 16 16 16 17 18 17 17 18 18 17 17 17 17 17 17 16 16 16 17 17 17 17 18 18 18 20 20 20 19 18 18 18 18 18
10 12 14 16 15 15 15 15 15 16 16 16 17 18 17 17 17 17 17 17 17 16 17 16 16 16 16 17 17 17 17 18 17 18 20 20 21 21 19 18 18 18 18
10 10 12 16 15 15 15 15 16 16 16 16 17 17 17 17 17 17 16 16 16 17 16 16 16 16 16 16 16 16 17 17 17 17 18 18 20 20 21 19 18 18 18
9 9 12 12 15 15 15 15 15 15 15 16 16 17 18 18 17 17 16 16 17 16 16 16 16 16 16 16 16 16 16 16 18 17 17 17 17 18 20 21 19 17 17
9 9 10 10 11 13 14 14 14 15 16 15 16 17 17 17 17 17 16 16 16 16 16 16 16 16 15 15 15 15 16 16 17 17 17 18 18 18 18 19 20 19 17
9 9 9 8 9 10 14 15 15 15 15 14 17 17 17 18 16 16 16 16 15 15 15 15 15 15 15 15 15 15 15 16 16 16 17 17 18 19 18 19 19 19 17
8 9 8 8 8 9 12 13 14 14 14 15 15 16 15 16 17 18 16 16 16 15 15 15 15 15 15 14 15 14 15 15 15 16 16 16 17 17 16 17 17 16 16
8 8 7 7 7 8 9 12 13 13 14 14 15 16 16 15 15 15 15 16 15 15 15 15 15 15 14 14 14 14 14 15 15 16 16 16 16 16 16 16 17 16 16
9 8 8 7 7 7 8 10 12 13 14 14 15 15 15 15 15 15 15 14 15 15 15 14 14 14 14 13 13 13 13 14 15 16 15 15 16 15 15 14 14 15 15
10 9 8 9 7 7 8 9 11 13 13 14 14 14 15 15 15 14 15 15 14 14 14 14 14 14 14 13 13 13 13 14 15 15 15 15 16 14 14 14 14 13 13
11 10 10 10 8 7 7 8 9 12 12 13 13 13 13 14 14 14 14 15 14 14 14 14 14 14 13 13 13 13 13 14 14 16 16 15 14 14 13 13 13 13 13
11 12 11 11 10 9 8 7 8 10 11 12 12 12 12 12 13 13 13 13 14 14 14 14 14 14 14 14 14 14 14 14 14 15 13 13 14 13 13 13 13 13 13
11 11 11 11 10 10 9 8 9 9 10 10 11 11 11 12 12 12 12 13 13 13 13 13 13 14 14 14 13 13 14 14 14 13 14 14 14 14 15 14 13 13 12
11 10 10 10 10 10 10 9 8 8 10 10 9 9 10 11 11 11 11 12 12 12 12 12 12 13 13 13 13 13 13 13 13 13 13 13 13 13 13 13 13 12 12
10 10 10 10 9 8 9 9 8 8 9 9 9 9 10 10 10 10 11 11 11 11 11 11 12 12 12 12 12 13 13 13 13 12 12 13 13 13 13 13 13 12 11
10 10 9 9 8 7 7 8 8 8 8 8 8 9 9 9 9 9 9 9 9 10 10 10 10 10 10 10 11 11 11 11 11 12 12 12 12 11 11 11 10 10 10
10 9 9 8 7 7 7 7 7 8 8 8 7 7 8 8 8 8 8 8 8 8 8 8 9 9 10 10 11 11 10 10 10 10 10 10 10 10 11 11 11 9 10
10 9 8 7 7 7 6 7 7 7 7 7 7 7 7 7 7 7 7 7 8 8 8 8 9 8 8 9 10 10 9 8 8 9 9 9 9 8 8 8 10 9 8
9 8 8 7 7 7 6 8 7 7 6 6 6 6 6 7 7 6 6 6 7 7 7 7 7 8 7 8 8 8 7 8 8 8 9 9 9 8 8 7 7 6 6
9 7 7 8 7 6 6 7 7 6 5 5 5 6 6 6 6 6 6 6 7 7 7 8 7 7 7 7 7 7 6 6 7 7 7 7 7 7 7 7 7 7 7
8 7 7 7 6 5 6 6 6 5 5 5 5 6 6 5 5 6 5 6 6 7 7 7 7 7 6 6 6 7 6 6 5 6 6 6 6 6 6 6 6 6 6
8 7 7 7 6 5 5 6 5 5 5 5 5 5 5 5 5 5 5 6 6 5 5 4 4 4 4 5 4 4 4 5 4 5 5 5 5 5 5 4 5 4 4
8 7 7 7 7 6 5 5 4 4 4 5 5 4 5 5 5 5 4 5 5 5 5 5 4 4 4 3 3 3 3 3 3 3 4 4 4 4 4 4 4 4 4
7 7 7 7 7 6 5 5 4 4 4 4 4 4 4 4 4 4 4 4 4 3 3 4 3 3 2 2 1 1 2 2 2 3 3 3 3 3 3 3 3 3 3
7 6 6 6 6 5 5 4 3 3 4 4 4 4 4 4 4 4 4 2 2 1 1 1 0 0 -0 -0 -0 -0 0 1 1 2 3 3 2 2 2 2 2 2 2